{"data":{"norad_id":47371,"epoch":"2026-05-25T02:02:42.251136Z","epoch_age_seconds":67951,"freshness":"FRESH","line1":"1 47371U 21005Y   26145.08521124  .00001279  00000+0  52933-4 0  9995","line2":"2 47371  53.1628  71.0368 0001284  93.4484 266.6665 15.31716526294673","mean_motion":15.31716526,"eccentricity":0.0001284,"inclination_deg":53.1628,"raan_deg":71.0368,"arg_perigee_deg":93.4484,"mean_anomaly_deg":266.6665,"bstar":5.2933e-5,"rev_number":29467,"period_min":94.012173633752,"perigee_km":469.81134304166,"apogee_km":471.57012200337,"semimajor_km":6848.8277325225,"source":"CELESTRAK","updated_at":"2026-05-25T13:38:16.526658Z"}}